Location: Gadern
(49.5873°N, 8.8138°E)
Time: 09:30:57
(UTC+00:00)

USA 229 DEB - Pass Details

Date: 19 May 2025
Orbit: 872 x 1339 km, 63.4° (Epoch: 20 June)

Event Time Altitude Azimuth Distance (km) Brightness Sun altitude
Exits shadow 23:20:43 32° 210° (SSW) 1,559 4.1 -20.4°
Maximum altitude 23:23:45 78° 129° (SE) 1,010 3.4 -20.4°
Drops below altitude 10° 23:30:34 10° 44° (NE) 2,916 6.6 -20.4°
Sets 23:33:23 0° 43° (NE) 3,948 7.4 -20.4°
